Wind_Speed
25 24 25 24 23 23 25 26 26 25 25 25 24 23 23 24 25 25 25 24 24 24 25 24 24 24 24 24 24 24 25 25 25 25 26 26 26 27 26 26 26 27 27 27
26 25 26 27 26 26 26 27 27 28 28 28 27 25 26 26 26 27 27 26 26 26 26 26 27 27 27 27 27 27 27 27 27 28 28 29 29 29 29 29 29 29 29 29
28 26 27 27 27 28 29 29 29 29 29 29 29 29 28 28 27 28 28 28 27 28 28 28 28 29 30 30 29 29 29 29 29 30 31 31 31 31 32 31 31 31 32 32
29 29 30 28 28 28 29 30 29 30 30 29 30 30 29 29 29 30 30 30 30 29 30 30 30 31 31 31 32 32 32 32 33 33 32 32 33 33 32 33 32 33 33 33
30 31 32 30 30 30 30 31 31 31 31 31 31 31 31 31 32 32 32 32 32 32 33 33 32 32 32 33 33 33 34 34 34 34 33 34 34 34 34 34 33 33 33 33
32 33 33 31 30 31 31 32 33 33 33 32 32 33 33 33 34 34 35 35 35 35 35 36 36 35 35 36 36 36 36 35 35 35 35 35 35 35 36 35 35 35 35 34
33 33 33 32 31 32 33 33 32 32 33 33 34 34 34 35 35 35 36 37 36 37 37 38 38 39 39 39 39 38 37 36 37 37 36 36 36 37 37 37 37 36 36 36
32 33 33 32 32 33 33 34 34 34 34 35 35 35 35 36 36 37 38 38 38 38 39 39 40 40 41 41 40 39 39 38 38 39 39 38 39 39 39 38 38 37 38 38
34 34 33 33 33 33 33 34 34 35 35 35 35 36 36 37 37 37 38 38 38 38 39 39 40 41 42 41 41 40 40 40 40 39 40 40 40 40 40 39 38 38 39 39
36 35 35 33 33 34 34 34 34 34 35 36 36 37 37 37 37 38 38 38 38 39 39 39 40 40 40 40 41 41 41 41 41 41 41 42 42 42 41 41 41 40 39 39
35 35 35 35 34 33 33 34 34 36 36 36 36 37 37 35 35 35 36 36 36 37 38 38 38 39 40 40 41 41 42 42 42 42 42 43 43 44 43 43 43 42 41 40
32 32 34 33 34 34 35 35 36 36 37 37 38 38 37 37 37 38 38 38 37 37 38 39 39 40 40 41 41 41 42 42 42 42 43 43 43 43 43 43 42 42 42 41
32 32 33 33 33 34 35 36 37 36 37 37 38 37 37 38 38 38 38 38 38 39 40 40 41 41 42 42 43 43 43 43 43 43 43 43 43 43 43 43 43 42 41 40
33 33 33 33 33 34 34 35 36 36 37 38 37 38 38 38 38 38 38 39 39 40 40 41 42 42 42 42 43 43 43 43 43 43 43 43 43 43 43 42 42 42 41 40
32 32 33 33 34 34 34 35 35 35 36 36 37 38 38 38 39 39 39 39 39 40 40 41 41 41 41 42 42 42 42 42 42 43 42 42 42 42 41 41 42 42 41 41
30 31 31 33 33 32 33 34 34 34 34 35 36 36 37 39 39 39 39 39 40 40 40 40 40 41 41 41 41 41 41 42 42 42 42 42 42 41 41 40 40 40 40 38
29 30 30 30 29 30 31 31 32 32 33 33 33 34 36 37 38 39 39 40 40 40 40 40 40 40 40 40 40 40 40 40 40 40 40 40 40 39 38 37 37 37 37 37
27 28 28 27 27 27 27 28 28 29 29 30 31 32 33 34 35 36 37 38 38 39 39 39 39 39 39 39 40 39 38 38 38 37 37 36 36 36 36 35 35 34 34 34
23 23 23 24 24 24 25 25 26 26 27 28 29 30 31 32 32 33 34 34 35 35 35 36 36 36 36 36 36 36 35 35 35 35 35 35 34 33 33 33 32 32 31 31
21 21 20 21 22 23 24 24 25 26 26 27 28 28 29 29 30 31 31 31 31 32 32 33 33 34 34 33 33 33 33 32 32 33 33 32 32 31 30 30 30 30 30 29
20 20 20 21 22 23 23 24 25 25 26 26 27 28 28 28 28 28 28 28 29 30 31 32 32 31 31 31 31 30 30 30 30 29 28 28 28 27 27 27 27 28 28 28
20 20 20 21 22 22 23 23 24 25 26 27 27 26 27 27 27 27 27 27 28 29 29 30 30 30 30 29 29 29 29 29 28 27 27 26 25 25 25 25 25 26 26 26
19 20 21 21 22 22 22 23 23 24 25 25 25 25 26 25 25 26 26 27 27 28 28 28 28 29 28 28 28 28 28 27 26 26 26 25 24 24 24 24 24 25 25 26
18 19 19 20 21 21 21 22 22 23 23 23 23 23 24 24 24 25 26 26 27 27 27 27 27 27 27 27 27 27 26 26 25 25 25 25 24 24 24 24 24 24 25 25
17 18 18 19 20 20 21 20 21 21 22 22 22 22 22 23 23 23 24 24 25 25 26 26 26 25 25 25 25 25 25 25 25 25 24 24 24 23 23 23 23 24 25 25
17 17 18 18 19 19 19 19 19 20 20 20 21 21 21 21 22 22 22 23 23 24 24 24 24 23 23 24 23 23 24 24 24 24 23 23 23 23 23 23 24 24 24 24
16 16 17 17 17 18 18 18 19 18 18 19 20 21 21 21 21 21 21 22 22 22 23 23 23 22 22 22 22 22 23 23 23 22 22 22 22 22 22 22 22 22 22 23
Wind_Direction
250 250 247 247 245 243 246 253 258 259 261 264 266 267 269 271 274 275 278 278 279 280 281 284 286 286 288 288 287 287 287 287 287 287 285 284 283 282 280 280 277 276 274 274
249 247 247 246 247 246 248 252 257 259 261 263 264 264 265 268 272 275 279 280 279 280 282 283 284 284 287 287 287 287 286 285 285 284 283 283 282 281 279 279 277 276 274 273
252 251 251 249 251 251 251 252 255 257 260 262 264 265 267 271 273 274 277 278 280 282 283 284 285 286 288 285 285 287 287 285 285 284 282 282 282 282 280 277 276 275 274 274
253 251 251 253 253 255 254 255 256 258 259 262 265 267 269 272 271 273 277 280 283 284 284 285 285 286 285 285 285 286 286 286 285 285 284 282 281 280 278 275 274 274 274 274
254 254 255 254 254 256 257 257 258 259 261 264 267 269 271 274 275 274 276 280 282 283 285 285 285 284 284 285 285 285 285 285 285 285 284 283 281 280 278 277 275 275 274 273
256 257 257 256 255 256 259 260 261 262 263 264 265 268 270 273 275 276 278 279 281 282 283 284 284 285 285 285 285 285 285 285 285 284 284 282 281 279 277 276 276 275 275 275
256 258 259 258 257 257 259 262 264 264 265 266 266 267 270 272 274 275 278 279 280 281 281 282 283 284 285 285 285 285 285 284 283 283 282 282 281 280 280 278 278 277 277 276
256 258 259 261 261 260 261 263 264 264 266 267 267 269 271 272 274 276 278 279 280 280 281 281 282 284 285 285 285 285 285 284 283 282 281 280 279 280 279 277 276 276 277 278
257 258 260 261 260 261 262 264 266 267 268 269 269 271 272 272 274 275 276 277 278 280 281 283 284 284 285 285 286 285 285 284 283 281 280 279 279 279 277 277 277 277 277 279
259 260 262 263 263 262 263 264 266 269 270 271 273 274 273 274 275 275 276 277 278 279 282 283 283 284 285 286 287 286 285 284 283 282 281 280 280 280 279 278 278 278 278 278
257 260 262 263 263 263 263 265 267 269 271 272 275 275 277 277 276 276 277 278 280 282 284 284 283 285 285 286 287 287 286 285 285 283 282 282 281 280 279 278 279 278 277 277
257 259 261 263 264 264 265 266 268 268 269 272 274 275 278 279 278 278 280 282 283 283 284 284 285 285 285 285 286 286 287 286 285 283 283 282 282 280 279 279 279 278 277 277
255 257 259 262 263 266 267 268 269 269 269 271 273 275 277 278 278 279 280 282 283 283 284 284 285 285 285 285 285 286 287 286 285 284 283 282 282 280 279 278 278 276 275 276
258 260 262 265 265 267 269 270 270 270 271 271 272 273 275 277 278 279 281 282 283 285 285 286 286 286 286 286 287 287 287 287 285 284 283 282 282 281 279 278 276 275 274 275
260 263 265 265 267 268 270 273 274 274 274 274 273 274 275 276 278 279 280 281 283 284 286 287 287 287 287 288 289 289 288 288 287 286 285 284 284 283 281 279 276 275 274 274
261 264 265 267 269 270 272 274 275 275 276 276 276 276 277 278 279 280 281 282 283 284 286 286 287 288 288 289 290 290 289 288 288 287 287 285 285 284 282 281 279 275 274 273
265 266 268 270 272 273 274 275 276 277 278 278 278 278 279 280 280 281 282 283 284 285 286 287 288 289 289 289 290 289 289 288 288 287 287 286 284 282 281 281 279 277 274 272
266 268 269 270 271 272 274 276 279 280 281 280 280 281 282 283 283 284 285 286 287 287 288 289 289 289 289 289 290 289 288 288 287 287 286 286 285 283 281 280 280 277 275 273
266 268 270 270 271 273 276 278 279 281 282 282 283 283 284 285 287 288 288 288 288 288 289 291 292 292 292 291 290 290 290 288 287 287 286 286 285 284 282 280 279 278 276 273
268 270 271 271 272 275 277 279 280 281 283 285 286 286 287 289 291 292 292 292 291 291 292 293 294 294 294 293 292 291 291 290 289 288 287 287 286 283 281 280 278 277 275 273
269 272 273 273 275 277 278 280 282 284 286 288 289 288 290 291 293 295 295 295 295 295 295 295 295 296 296 295 294 292 292 293 292 290 289 288 287 284 281 280 279 278 276 276
272 275 276 275 277 279 281 283 284 285 287 289 290 291 292 293 293 294 296 296 297 298 299 298 297 297 297 296 295 294 293 294 294 292 290 289 289 287 284 282 280 278 277 275
275 276 276 277 279 281 283 285 286 288 290 292 294 295 296 295 295 296 297 299 300 301 302 301 300 299 299 299 298 296 295 295 294 293 292 292 292 290 288 284 281 278 277 277
277 278 279 279 280 281 283 285 287 290 292 295 297 297 298 298 298 300 300 299 301 303 304 303 303 302 301 300 300 299 297 295 295 295 294 293 293 291 289 286 283 282 280 278
280 281 282 282 283 284 285 286 288 291 294 295 297 300 300 301 303 304 304 304 304 305 307 307 306 304 303 302 302 302 302 301 300 299 297 295 293 292 290 288 286 284 283 280
282 284 286 287 288 288 289 289 288 290 292 295 298 301 302 303 306 308 308 308 309 309 310 311 311 308 306 304 304 304 305 306 305 304 301 298 296 294 293 291 287 285 282 280
283 286 288 289 291 292 293 293 293 293 294 295 298 301 304 306 307 309 310 310 311 312 313 313 312 310 308 308 307 306 306 305 305 304 303 301 297 294 293 291 289 286 283 282
Height
5880 5882 5882 5882 5883 5884 5885 5886 5886 5887 5888 5888 5888 5889 5889 5889 5888 5888 5886 5886 5886 5885 5884 5884 5883 5882 5881 5880 5879 5878 5877 5876 5875 5873 5872 5870 5869 5867 5866 5864 5863 5862 5860 5860
5874 5876 5876 5876 5878 5878 5879 5879 5880 5880 5881 5881 5882 5882 5883 5882 5882 5882 5881 5880 5880 5879 5878 5877 5876 5875 5874 5873 5872 5871 5870 5868 5867 5865 5864 5862 5860 5859 5857 5856 5855 5853 5852 5851
5866 5868 5869 5870 5871 5871 5871 5872 5873 5873 5874 5874 5875 5875 5876 5876 5875 5875 5874 5874 5873 5872 5871 5870 5869 5868 5866 5865 5864 5863 5862 5860 5858 5856 5854 5853 5851 5849 5848 5847 5846 5844 5843 5842
5858 5861 5861 5865 5864 5863 5864 5864 5865 5865 5866 5867 5868 5868 5868 5868 5868 5867 5867 5866 5865 5864 5863 5862 5861 5859 5858 5857 5855 5854 5852 5851 5849 5847 5845 5843 5841 5840 5838 5837 5836 5835 5834 5833
5850 5851 5852 5855 5855 5855 5856 5856 5857 5857 5858 5859 5860 5860 5860 5860 5860 5859 5858 5857 5856 5855 5854 5853 5851 5850 5848 5847 5845 5844 5842 5841 5839 5837 5835 5833 5832 5830 5829 5828 5827 5825 5824 5823
5842 5842 5844 5847 5847 5847 5849 5848 5849 5849 5850 5851 5852 5852 5853 5852 5851 5850 5849 5848 5847 5846 5844 5842 5841 5839 5838 5836 5835 5834 5832 5830 5828 5827 5825 5823 5822 5820 5819 5817 5816 5815 5814 5813
5833 5833 5835 5837 5839 5840 5841 5841 5841 5841 5842 5842 5843 5844 5844 5843 5842 5841 5840 5838 5837 5836 5834 5832 5831 5829 5827 5826 5824 5822 5821 5819 5817 5816 5814 5813 5811 5810 5808 5807 5805 5804 5803 5802
5824 5825 5828 5828 5829 5831 5831 5832 5832 5833 5833 5834 5834 5834 5833 5832 5831 5830 5829 5829 5827 5826 5824 5822 5820 5818 5816 5814 5813 5811 5809 5808 5806 5804 5803 5801 5800 5798 5796 5795 5794 5792 5791 5791
5816 5818 5818 5819 5820 5821 5821 5822 5823 5824 5824 5824 5824 5824 5823 5822 5822 5821 5820 5819 5817 5815 5813 5811 5809 5807 5805 5803 5801 5799 5797 5796 5794 5792 5791 5789 5788 5787 5785 5783 5782 5781 5780 5779
5807 5807 5808 5810 5811 5811 5812 5813 5813 5814 5814 5814 5814 5813 5812 5812 5811 5810 5809 5807 5806 5804 5802 5800 5798 5796 5793 5791 5789 5787 5785 5783 5782 5780 5778 5776 5775 5774 5772 5771 5770 5769 5768 5766
5797 5799 5799 5800 5801 5802 5802 5803 5803 5803 5804 5804 5803 5803 5802 5801 5800 5799 5797 5795 5794 5792 5790 5788 5787 5785 5783 5780 5778 5775 5773 5771 5769 5767 5765 5764 5762 5760 5759 5758 5756 5756 5755 5753
5790 5791 5791 5792 5792 5793 5793 5793 5793 5793 5793 5793 5793 5792 5791 5790 5789 5788 5786 5784 5783 5781 5779 5777 5775 5773 5771 5769 5766 5764 5761 5759 5757 5754 5752 5751 5749 5747 5745 5744 5743 5742 5741 5740
5781 5782 5783 5783 5784 5784 5784 5783 5783 5782 5783 5783 5782 5781 5780 5779 5778 5777 5775 5774 5772 5770 5768 5766 5764 5761 5759 5757 5754 5752 5749 5747 5744 5742 5740 5738 5736 5734 5733 5732 5730 5729 5728 5727
5772 5773 5773 5774 5774 5774 5773 5773 5773 5772 5772 5772 5771 5770 5769 5768 5767 5766 5764 5763 5761 5759 5756 5754 5752 5749 5747 5744 5742 5739 5736 5734 5731 5729 5727 5725 5723 5721 5719 5718 5717 5716 5715 5713
5763 5764 5764 5765 5764 5764 5764 5763 5763 5762 5761 5761 5760 5759 5758 5757 5756 5755 5753 5751 5749 5747 5745 5742 5740 5737 5734 5732 5729 5727 5724 5721 5718 5716 5714 5711 5709 5707 5706 5704 5703 5702 5701 5700
5755 5755 5755 5755 5755 5754 5754 5753 5753 5752 5751 5750 5749 5748 5747 5746 5744 5743 5742 5740 5738 5735 5733 5730 5728 5726 5723 5720 5717 5714 5711 5708 5705 5703 5700 5698 5696 5694 5693 5691 5690 5689 5689 5688
5746 5746 5746 5746 5746 5745 5745 5744 5743 5742 5741 5740 5738 5737 5736 5735 5733 5732 5730 5728 5726 5724 5721 5718 5716 5713 5711 5708 5705 5702 5699 5696 5693 5690 5688 5685 5683 5682 5680 5678 5677 5676 5675 5675
5737 5738 5738 5737 5737 5736 5736 5735 5734 5733 5732 5730 5729 5727 5726 5724 5723 5721 5718 5716 5714 5712 5709 5706 5704 5701 5699 5696 5693 5690 5687 5684 5681 5679 5676 5674 5671 5669 5668 5666 5665 5664 5663 5663
5730 5730 5730 5729 5728 5728 5728 5727 5726 5724 5723 5722 5720 5718 5716 5715 5712 5710 5708 5705 5703 5700 5698 5695 5693 5690 5687 5684 5681 5678 5675 5672 5670 5667 5665 5662 5660 5658 5656 5655 5654 5653 5652 5652
5723 5723 5722 5721 5721 5721 5720 5719 5718 5717 5715 5713 5712 5710 5708 5705 5703 5700 5698 5695 5692 5690 5688 5685 5682 5679 5676 5673 5670 5667 5664 5661 5659 5656 5654 5651 5649 5647 5645 5644 5643 5642 5641 5641
5717 5716 5716 5715 5715 5714 5713 5712 5711 5709 5707 5705 5703 5701 5699 5697 5694 5691 5688 5686 5683 5681 5678 5675 5672 5669 5666 5663 5660 5657 5654 5652 5649 5646 5644 5641 5639 5637 5635 5634 5633 5632 5631 5630
5710 5710 5709 5708 5708 5707 5706 5705 5703 5702 5700 5698 5695 5693 5691 5688 5686 5683 5680 5678 5675 5672 5669 5666 5663 5660 5657 5654 5651 5648 5646 5643 5640 5637 5635 5632 5630 5628 5626 5625 5623 5622 5621 5621
5704 5703 5702 5702 5701 5700 5699 5697 5696 5694 5692 5690 5688 5686 5683 5681 5678 5676 5673 5670 5667 5664 5661 5658 5655 5652 5649 5645 5642 5640 5637 5634 5631 5629 5626 5623 5621 5619 5618 5616 5615 5614 5613 5612
5698 5697 5696 5695 5694 5693 5692 5690 5689 5687 5685 5683 5681 5679 5676 5674 5671 5668 5665 5663 5660 5656 5653 5650 5646 5643 5640 5637 5634 5631 5628 5626 5623 5620 5618 5615 5613 5611 5609 5607 5606 5604 5603 5602
5692 5691 5690 5689 5688 5686 5685 5684 5682 5680 5678 5677 5674 5672 5670 5667 5664 5661 5658 5655 5652 5649 5646 5642 5639 5635 5632 5629 5626 5624 5621 5618 5615 5613 5610 5608 5605 5603 5601 5599 5598 5596 5594 5593
5686 5685 5684 5683 5682 5680 5679 5677 5676 5674 5672 5670 5668 5666 5663 5660 5658 5655 5652 5649 5646 5642 5639 5635 5632 5628 5625 5622 5619 5616 5614 5611 5608 5605 5602 5599 5597 5595 5593 5591 5589 5587 5585 5584
5680 5679 5679 5677 5676 5674 5673 5671 5670 5668 5667 5665 5662 5659 5657 5654 5652 5649 5646 5643 5639 5636 5632 5629 5626 5622 5619 5616 5613 5610 5607 5604 5601 5598 5595 5592 5590 5587 5585 5583 5581 5579 5577 5575